CUTE-1.7+APD II (CO-65)

Last updated on Wed Aug 19 2026 00:03:14 GMT+0000 (Coordinated Universal Time)

1 32785U 08021C 26230.61722663 .00004066 00000+0 25452-3 0 9998 2 32785 97.8342 213.3780 0009025 164.1026 196.0487 15.09951801994613
UTC large
Height (km)
Speed (km/s)
/
Latitude / Longitude
Inclination (degrees)
Orbital Period (minutes)
Azimuth
Elevation
Range (km)
Doppler Factor

Next 0 passes for location: London (51.5072 / 0.1276)

No passes found over London.
CUTE-1.7+APD II (CO-65)